Вернуться в каталог

DMSP 5D-3 F19 DEB

АктивенSSO
NORAD 39633·DEBRIS·🇺🇸 United States

Запущен Apr 3, 2014 с Vandenberg Space Force Base

Loading…

Ближайшие Пролёты (ближайшие 24 часа)

TLE

СвежийSource: Space-Track

Эпоха: Sep 14, 2026, 11:44 UTC

1 39633U 14015D   26257.48956880  .00001171  00000-0  50331-3 0  9990
2 39633  98.6725 269.3870 0004337 199.3497 160.7520 14.26589338644371

Отслеживайте DMSP 5D-3 F19 DEB в реальном времени с AllMySat

Download on the App Store